[[{"header":{"parameterUnit":"m.s-1","parameterCategory":1,"la1":30.2991,"la2":30.254,"lo1":-89.0895,"lo2":-89.0444,"dy":0.0017,"dx":0.0017,"nx":28,"ny":28,"refTime":"2024-03-14T21:00:00:Z","depth":0,"parameterNumber":2,"parameterNumberName":"U-component_of_WINDS"},"data":[0,0,0,0,0,0,0,0,0,0,0,0,0,0,0,0,0,0,0,0,0,0,0,0,0,0,0,0,0,0,0,0,0,0,0,0,0,0,0,0,0,0,0,0,0,0,0,0,0,0,0,0,0,0,0,0,0,0,-1.0074,-1.0074,0,-1.0085,-1.0085,-1.0085,-1.0075,-1.0074,-1.0074,-1.0073,-1.0085,-1.0085,-1.0086,0,0,0,0,0,0,0,0,0,0,0,0,0,-1.0043,-1.0044,-1.0074,-1.0074,-1.0074,-1.0085,-1.0085,-1.0085,-1.0075,-1.0074,-1.0074,-1.0073,-1.0084,-1.0085,-1.0086,0,0,0,0,0,0,0,0,0,0,0,0,0,-1.0056,-1.0044,-1.0074,-1.007,-1.007,-1.0085,-1.0085,-1.0085,-1.0075,-1.0074,-1.0073,-1.0073,-1.0084,-1.0085,-1.0086,-1.0105,0,0,-1.0089,-1.009,0,0,0,0,0,0,0,0,-1.0055,-1.0057,-1.007,-1.007,-1.007,-1.0078,-1.0078,-1.0092,-1.0075,-1.0073,-1.0073,-1.0072,-1.0083,-1.0084,-1.0087,-1.0106,-1.0107,-1.0089,-1.009,-1.0091,-1.0091,0,0,0,0,0,0,0,-1.0054,-1.0056,-1.0078,-1.0071,-1.007,-1.0068,-1.0069,-1.0081,-1.0081,-1.0073,-1.0072,-1.0074,-1.0083,-1.0086,-1.0088,-1.0107,-1.0089,-1.009,-1.0091,-1.0091,-1.0142,-1.0143,0,0,0,0,0,0,-1.0054,-1.0056,-1.0078,-1.0079,-1.0061,-1.0069,-1.007,-1.0076,-1.0081,-1.0081,-1.0074,-1.0073,-1.0085,-1.0086,-1.0088,-1.0112,-1.0091,-1.0092,-1.0092,-1.0141,-1.0142,-1.0143,0,0,0,0,0,0,-1.0053,-1.0056,-1.0077,-1.0067,-1.0069,-1.007,-1.0077,-1.0076,-1.008,-1.0082,-1.0082,-1.0078,-1.0085,-1.0087,-1.0101,-1.0112,-1.0092,-1.0093,-1.0141,-1.0142,-1.0143,-1.0158,0,0,0,0,0,0,-1.0052,-1.0056,-1.0063,-1.0067,-1.007,-1.0091,-1.0077,-1.0077,-1.0082,-1.0081,-1.0086,-1.0086,-1.0084,-1.01,-1.0102,-1.0113,-1.0094,-1.014,-1.0141,-1.0142,-1.0157,-1.016,-1.0162,0,0,0,0,0,-1.0051,-1.0067,-1.0063,-1.0066,-1.0079,-1.0091,-1.0093,-1.0091,-1.0083,-1.0091,-1.0092,-1.0086,-1.011,-1.0101,-1.0104,-1.0115,-1.0139,-1.0141,-1.0142,-1.0156,-1.0159,-1.0162,0,0,0,0,0,0,-1.0064,-1.0067,-1.0064,-1.0081,-1.0086,-1.0089,-1.0099,-1.0094,-1.0102,-1.01,-1.0097,-1.0098,-1.0114,-1.0116,-1.0106,-1.0134,-1.0123,-1.0126,-1.0133,-1.0136,-1.0139,-1.0138,-1.0095,0,0,0,0,0,-1.0068,-1.0078,-1.008,-1.0096,-1.0098,-1.0098,-1.0103,-1.0101,-1.0106,-1.0108,-1.011,-1.0115,-1.0124,-1.013,-1.0138,-1.0157,-1.0158,-1.0166,-1.0168,-1.0171,-1.0173,-1.0184,-1.0187,-1.0148,-1.0148,-1.0148,0,0,-1.0079,-1.0082,-1.0088,-1.0098,-1.0102,-1.0112,-1.01,-1.0111,-1.0119,-1.011,-1.0124,-1.0126,-1.0131,-1.0148,-1.0156,-1.0151,-1.0184,-1.0173,-1.0174,-1.0176,-1.0186,-1.0189,-1.0193,-1.0149,-1.0149,-1.0149,0,0,-1.0102,-1.0105,-1.0119,-1.0123,-1.0128,-1.0128,-1.0131,-1.0135,-1.0136,-1.0151,-1.0144,-1.0153,-1.0168,-1.0172,-1.0176,-1.0202,-1.0197,-1.0204,-1.0219,-1.0229,-1.0232,-1.0235,-1.0245,-1.0248,-1.0206,-1.0206,-1.0207,0,-1.0114,-1.0129,-1.0126,-1.0138,-1.0143,-1.0135,-1.0149,-1.0153,-1.016,-1.0164,-1.0158,-1.0177,-1.018,-1.0198,-1.0204,-1.0208,-1.0211,-1.0204,-1.0232,-1.0235,-1.0237,-1.0246,-1.025,-1.0207,-1.0207,-1.0207,-1.0207,0,-1.0144,-1.0154,-1.0164,-1.0173,-1.0178,-1.0191,-1.019,-1.0196,-1.0193,-1.0194,-1.0209,-1.0212,-1.0221,-1.0225,-1.0222,-1.0243,-1.0239,-1.0233,-1.0222,-1.0242,-1.0251,-1.0254,-1.0209,-1.0208,-1.0208,-1.0208,0,0,-1.0176,-1.0183,-1.0187,-1.019,-1.0196,-1.0204,-1.0216,-1.0225,-1.0231,-1.0236,-1.0247,-1.026,-1.0253,-1.0258,-1.0256,-1.0265,-1.0285,-1.0257,-1.0257,-1.0263,-1.0309,-1.0315,-1.0319,-1.0282,-1.0282,-1.0283,-1.0309,0,-1.0201,-1.0223,-1.022,-1.0241,-1.025,-1.0243,-1.0254,-1.0259,-1.0259,-1.0268,-1.0268,-1.0278,-1.0268,-1.0271,-1.028,-1.0281,-1.0295,-1.0279,-1.0292,-1.0292,-1.0292,-1.0323,-1.0329,-1.0354,-1.0312,-1.0313,-1.0313,0,-1.0233,-1.024,-1.0261,-1.0266,-1.027,-1.0279,-1.0288,-1.0295,-1.0301,-1.03,-1.0306,-1.0302,-1.0314,-1.0302,-1.0319,-1.0309,-1.0314,-1.0315,-1.0316,-1.0318,-1.0305,-1.0327,-1.0361,-1.0365,-1.0318,-1.0318,-1.0317,0,-1.0255,-1.027,-1.0285,-1.0288,-1.0294,-1.0301,-1.0303,-1.0308,-1.0313,-1.032,-1.0324,-1.0332,-1.0336,-1.0343,-1.0341,-1.0332,-1.0359,-1.0347,-1.0359,-1.036,-1.0366,-1.0366,-1.0403,-1.0368,-1.0368,-1.0368,-1.0368,0,-1.0284,-1.0297,-1.0295,-1.0305,-1.032,-1.0317,-1.0332,-1.0333,-1.0337,-1.0347,-1.0341,-1.035,-1.0347,-1.0356,-1.0354,-1.0369,-1.0371,-1.0371,-1.0371,-1.0372,-1.0372,-1.0376,-1.0375,-1.0369,-1.0368,-1.0368,-1.0368,0,-1.0312,-1.0311,-1.0327,-1.0331,-1.0332,-1.0343,-1.0346,-1.0355,-1.0355,-1.0367,-1.037,-1.037,-1.038,-1.0379,-1.039,-1.0389,-1.0408,-1.0405,-1.0406,-1.0406,-1.0419,-1.0418,-1.046,-1.0466,-1.0427,-1.0427,-1.0427,0,-1.033,-1.0341,-1.0346,-1.0352,-1.0355,-1.0364,-1.037,-1.0367,-1.0373,-1.038,-1.0388,-1.0398,-1.0405,-1.0422,-1.0423,-1.0431,-1.0429,-1.0443,-1.0431,-1.0432,-1.043,-1.043,-1.0432,-1.0446,-1.0447,-1.0447,-1.0447,0,-1.0364,-1.0363,-1.0371,-1.038,-1.0387,-1.0393,-1.0399,-1.0404,-1.0402,-1.0409,-1.0419,-1.0425,-1.0437,-1.0447,-1.0455,-1.0457,-1.0452,-1.0451,-1.0455,-1.0457,-1.0458,-1.0458,-1.0414,-1.0451,-1.045,-1.045,-1.045,-1.045,-1.0388,-1.0397,-1.0402,-1.0412,-1.0416,-1.0422,-1.043,-1.0431,-1.044,-1.0449,-1.0447,-1.0459,-1.0464,-1.0474,-1.0477,-1.0487,-1.0481,-1.0486,-1.0488,-1.0489,-1.0491,-1.0455,-1.0488,-1.0488,-1.0488,-1.0488,-1.0488,0,-1.0422,-1.0425,-1.0434,-1.0442,-1.045,-1.0444,-1.045,-1.0457,-1.0468,-1.0473,-1.048,-1.0492,-1.0502,-1.0503,-1.0512,-1.0519,-1.0517,-1.0522,-1.0522,-1.0523,-1.0495,-1.0491,-1.0523,-1.0523,-1.0523,-1.0523,-1.0523,-1.0523,-1.0441,-1.0456,-1.0456,-1.0473,-1.0475,-1.0487,-1.0491,-1.0497,-1.05,-1.0514,-1.0522,-1.0523,-1.0527,-1.0536,-1.0544,-1.0545,-1.0548,-1.0554,-1.0554,-1.0528,-1.0524,-1.0521,-1.0518,-1.0555,-1.0555,-1.0581,-1.0581,-1.0581]},{"header":{"parameterUnit":"m.s-1","parameterCategory":1,"la1":30.2991,"la2":30.254,"lo1":-89.0895,"lo2":-89.0444,"dy":0.0017,"dx":0.0017,"nx":28,"ny":28,"refTime":"2024-03-14T21:00:00:Z","depth":0,"parameterNumber":3,"parameterNumberName":"V-component_of_WINDS"},"data":[0,0,0,0,0,0,0,0,0,0,0,0,0,0,0,0,0,0,0,0,0,0,0,0,0,0,0,0,0,0,0,0,0,0,0,0,0,0,0,0,0,0,0,0,0,0,0,0,0,0,0,0,0,0,0,0,0,0,-3.5105,-3.5106,0,-3.515,-3.515,-3.5151,-3.5123,-3.5122,-3.512,-3.5119,-3.516,-3.5162,-3.5164,0,0,0,0,0,0,0,0,0,0,0,0,0,-3.4992,-3.4994,-3.5105,-3.5106,-3.5106,-3.5149,-3.515,-3.5151,-3.5123,-3.5122,-3.512,-3.5119,-3.5159,-3.5162,-3.5165,0,0,0,0,0,0,0,0,0,0,0,0,0,-3.5039,-3.4995,-3.5105,-3.5098,-3.5098,-3.5149,-3.515,-3.5151,-3.5124,-3.5122,-3.512,-3.5118,-3.5158,-3.5162,-3.5165,-3.5225,0,0,-3.5175,-3.5177,0,0,0,0,0,0,0,0,-3.5037,-3.5043,-3.5098,-3.5098,-3.5098,-3.5129,-3.5125,-3.5175,-3.5124,-3.5114,-3.5119,-3.5117,-3.5151,-3.5155,-3.5167,-3.5227,-3.5228,-3.5176,-3.5178,-3.5179,-3.518,0,0,0,0,0,0,0,-3.5033,-3.5041,-3.5122,-3.5099,-3.5099,-3.5091,-3.5096,-3.5135,-3.5142,-3.5114,-3.5112,-3.5118,-3.515,-3.5164,-3.5168,-3.5229,-3.5176,-3.5179,-3.5181,-3.5182,-3.5341,-3.5343,0,0,0,0,0,0,-3.5031,-3.5039,-3.5121,-3.5124,-3.5062,-3.5095,-3.51,-3.5121,-3.5142,-3.5143,-3.512,-3.5117,-3.5159,-3.5164,-3.5169,-3.5242,-3.5179,-3.5182,-3.5184,-3.5339,-3.5341,-3.5344,0,0,0,0,0,0,-3.5029,-3.5039,-3.5119,-3.5081,-3.5091,-3.5099,-3.5123,-3.5123,-3.5136,-3.5146,-3.5147,-3.5133,-3.5158,-3.5164,-3.5212,-3.5243,-3.5184,-3.5187,-3.5336,-3.534,-3.5343,-3.5387,0,0,0,0,0,0,-3.5026,-3.5038,-3.5062,-3.5082,-3.5093,-3.5163,-3.5125,-3.5125,-3.5143,-3.5139,-3.5158,-3.516,-3.5157,-3.5207,-3.5215,-3.5247,-3.519,-3.5333,-3.5338,-3.5342,-3.5383,-3.5392,-3.5399,0,0,0,0,0,-3.5022,-3.5071,-3.5063,-3.5073,-3.5123,-3.5164,-3.5171,-3.5168,-3.5146,-3.5169,-3.5175,-3.5159,-3.5238,-3.5212,-3.5221,-3.5254,-3.5332,-3.5337,-3.5341,-3.538,-3.539,-3.5399,0,0,0,0,0,0,-3.5053,-3.5074,-3.5065,-3.5123,-3.5142,-3.516,-3.5189,-3.5179,-3.5203,-3.5199,-3.5193,-3.5197,-3.5247,-3.5255,-3.5225,-3.5314,-3.5281,-3.5288,-3.5307,-3.5317,-3.5325,-3.5323,-3.5193,0,0,0,0,0,-3.5067,-3.5101,-3.5116,-3.5165,-3.5176,-3.5181,-3.5199,-3.5195,-3.5214,-3.5222,-3.5232,-3.525,-3.5279,-3.5298,-3.5325,-3.5384,-3.5388,-3.5411,-3.5419,-3.5425,-3.5432,-3.5465,-3.5475,-3.536,-3.536,-3.536,0,0,-3.5095,-3.5111,-3.5132,-3.5172,-3.5187,-3.5221,-3.5188,-3.5225,-3.525,-3.5227,-3.5274,-3.5281,-3.5301,-3.5355,-3.5379,-3.5363,-3.5464,-3.5431,-3.5437,-3.544,-3.5471,-3.5482,-3.5491,-3.5363,-3.5362,-3.5362,0,0,-3.5165,-3.518,-3.5224,-3.524,-3.5263,-3.5267,-3.5277,-3.5296,-3.5301,-3.5348,-3.5332,-3.5361,-3.541,-3.5426,-3.544,-3.5517,-3.5503,-3.5525,-3.5568,-3.56,-3.5609,-3.5617,-3.5646,-3.5656,-3.5532,-3.5532,-3.5532,0,-3.5197,-3.525,-3.5247,-3.5286,-3.5304,-3.5287,-3.5331,-3.5346,-3.5376,-3.5389,-3.537,-3.5434,-3.5445,-3.5504,-3.5523,-3.5534,-3.5546,-3.5524,-3.5608,-3.5616,-3.5624,-3.5651,-3.5662,-3.5534,-3.5534,-3.5534,-3.5534,0,-3.5289,-3.5325,-3.5357,-3.539,-3.5411,-3.5452,-3.5455,-3.5477,-3.5471,-3.5476,-3.5524,-3.5538,-3.5568,-3.5581,-3.5575,-3.5638,-3.5628,-3.5609,-3.5577,-3.5638,-3.5663,-3.5674,-3.5538,-3.5537,-3.5537,-3.5536,0,0,-3.538,-3.5411,-3.5423,-3.5439,-3.5464,-3.5491,-3.5531,-3.5563,-3.5582,-3.5603,-3.5637,-3.568,-3.5663,-3.568,-3.5675,-3.5703,-3.5765,-3.568,-3.5681,-3.5697,-3.5837,-3.5853,-3.5865,-3.5755,-3.5757,-3.5758,-3.5836,0,-3.5452,-3.5525,-3.5524,-3.5591,-3.5625,-3.5609,-3.5644,-3.5663,-3.5669,-3.5697,-3.5702,-3.5734,-3.5708,-3.5718,-3.5745,-3.5752,-3.5793,-3.5746,-3.5786,-3.5788,-3.5784,-3.5878,-3.5894,-3.5967,-3.5846,-3.5847,-3.5849,0,-3.5547,-3.5575,-3.5646,-3.5668,-3.5682,-3.5714,-3.5743,-3.5771,-3.5791,-3.5793,-3.5812,-3.5803,-3.5843,-3.5809,-3.5864,-3.5832,-3.5848,-3.5854,-3.5856,-3.5861,-3.5823,-3.5887,-3.599,-3.6002,-3.5864,-3.5863,-3.5862,0,-3.5609,-3.5663,-3.5713,-3.5727,-3.5752,-3.5776,-3.5787,-3.5806,-3.5825,-3.585,-3.5863,-3.5891,-3.5907,-3.5929,-3.5928,-3.5903,-3.5984,-3.5949,-3.5987,-3.5987,-3.6006,-3.6005,-3.6115,-3.6014,-3.6014,-3.6013,-3.6013,0,-3.5692,-3.5736,-3.5742,-3.5773,-3.5822,-3.582,-3.5868,-3.5877,-3.5894,-3.5926,-3.5912,-3.5942,-3.5938,-3.5967,-3.5966,-3.6013,-3.6019,-3.6022,-3.6021,-3.6024,-3.6024,-3.6036,-3.6032,-3.6016,-3.6016,-3.6015,-3.6015,0,-3.577,-3.5775,-3.5829,-3.585,-3.5856,-3.5892,-3.5909,-3.5938,-3.5942,-3.5983,-3.5992,-3.5999,-3.6033,-3.6034,-3.6072,-3.6071,-3.6129,-3.6121,-3.6123,-3.6122,-3.6161,-3.6158,-3.6283,-3.63,-3.6186,-3.6187,-3.6188,0,-3.5823,-3.5857,-3.5883,-3.5904,-3.5918,-3.5952,-3.5973,-3.5971,-3.5993,-3.6019,-3.6045,-3.6079,-3.6105,-3.616,-3.6168,-3.6197,-3.6192,-3.6233,-3.6196,-3.6198,-3.6195,-3.6193,-3.6197,-3.6241,-3.6243,-3.6244,-3.6244,0,-3.5918,-3.5919,-3.595,-3.5983,-3.6009,-3.6034,-3.6057,-3.6075,-3.6076,-3.6101,-3.6137,-3.6158,-3.6198,-3.6232,-3.6261,-3.627,-3.6258,-3.6256,-3.6267,-3.6271,-3.6271,-3.6274,-3.6145,-3.6254,-3.6253,-3.6252,-3.6251,-3.6251,-3.5986,-3.6017,-3.604,-3.6076,-3.6094,-3.6116,-3.6145,-3.6154,-3.6185,-3.6219,-3.6216,-3.6256,-3.6275,-3.6313,-3.6326,-3.6357,-3.6342,-3.6357,-3.6361,-3.6365,-3.6371,-3.6265,-3.6361,-3.6361,-3.6361,-3.6361,-3.6361,0,-3.6082,-3.6096,-3.6129,-3.6164,-3.6192,-3.6179,-3.6204,-3.6228,-3.6264,-3.6285,-3.6312,-3.6354,-3.6386,-3.6397,-3.6428,-3.6451,-3.6446,-3.6459,-3.6458,-3.6461,-3.6381,-3.637,-3.6463,-3.6463,-3.6463,-3.6463,-3.6463,-3.6463,-3.6135,-3.6187,-3.6191,-3.6252,-3.6265,-3.6307,-3.6322,-3.6343,-3.6359,-3.6407,-3.6435,-3.6442,-3.6459,-3.6491,-3.652,-3.6522,-3.6535,-3.6551,-3.6551,-3.6477,-3.6466,-3.6457,-3.6446,-3.6554,-3.6554,-3.6629,-3.663,-3.663]}]]